Find Starlink 11427

NORAD ID: 62063 Int'l Des: 2024-217 Owner: SPXS Country: US Constellation: starlink operational
LEOCIRCULAR

Live Position

Loading 3D Globe...

About Starlink 11427

Description loading...

Upcoming Passes

Passes for default location (London). Set your location on the main map for personalized predictions.

Altitude History

Loading altitude history...

Two-Line Element Set

1 62063U 24217G 26123.58976185 .00169044 00000-0 13669-2 0 9997
2 62063 53.1571 160.8078 0001267 87.8338 272.2825 15.69798347 83798
Epoch: May 3, 2026 • Age: 11 hours

Current Status

Altitude 367.2 km
Velocity 7.69 km/s
Sub-Earth Point -26.18°S, 95.4°W
Launch Date Nov 24, 2024
Age 1.4 years
Type internet

Technical Details

Classification Payload
Mass 960.00 kg
Dry Mass 910.00 kg
Total Mass 960.00 kg
Length 0.30 m
Diameter 4.10 m
Span 29.00 m
Shape Box + pan
Manufacturer SPXS
Bus Type Starlink V2MD
Phase Status In Orbit
Owner/State SPXS/US

Most Searched